Weather History for KISQ - October, 2012

Change the Weather History Date:

Sunday, October 14, 2012

  Actual Average Record
Temperature  
Mean Temperature 46 °F -  
Max Temperature 48 °F 54 °F 71 °F (2000)
Min Temperature 42 °F 37 °F 26 °F (1993)
Degree Days  
Heating Degree Days 19    
Moisture  
Dew Point 44 °F    
Average Humidity 91    
Maximum Humidity 93    
Minimum Humidity 87    
Precipitation  
Precipitation 0.00 in - - ()
Sea Level Pressure  
Sea Level Pressure 29.61 in    
Wind  
Wind Speed 8 mph (North)    
Max Wind Speed 22 mph    
Max Gust Speed 31 mph    
Visibility 8 miles    
Events Rain    
Averages and records for this station are not official NWS values.
T = Trace of Precipitation, MM = Missing Value Source: NWS Daily Summary

Daily Weather History Graph

Daily Weather History Graph

Search for Another Location

Airport or City:

Trip Planner

Search our weather history database for the weather conditions in past years. The results will help you decide how hot, cold, wet, or windy it might be!

Date:

Astronomy

Oct. 14, 2012 Rise Set
Actual Time 8:00 AM EDT 6:59 PM EDT
Civil Twilight 7:30 AM EDT 7:29 PM EDT
Nautical Twilight 6:56 AM EDT 8:04 PM EDT
Astronomical Twilight 6:21 AM EDT 8:38 PM EDT
Moon 6:58 AM EDT (10/14) 6:18 PM EDT (10/14)
Length of Visible Light 11h 58m
Length of Day
10h 58m
Waning Crescent, 1% of the Moon is Illuminated
Oct 14
Waning Crescent
Oct 15
New
Oct 21
First Quarter
Oct 29
Full
Nov 6
Last Quarter

Hourly Weather History & Observations

Time (EDT) Temp. Windchill Dew Point Humidity Pressure Visibility Wind Dir Wind Speed Gust Speed Precip Events Conditions
12:14 AM 48.2 °F - 46.4 °F 93% 29.77 in 10.0 mi NW 4.6 mph - N/A   Overcast
12:34 AM 48.2 °F - 46.4 °F 93% 29.76 in 10.0 mi NNW 6.9 mph - N/A   Overcast
12:54 AM 48.2 °F - 46.4 °F 93% 29.76 in 10.0 mi NNW 8.1 mph - N/A   Overcast
1:15 AM 48.2 °F - 46.4 °F 93% 29.77 in 10.0 mi NNW 6.9 mph - N/A   Overcast
1:34 AM 48.2 °F - 44.6 °F 87% 29.78 in 10.0 mi NNW 5.8 mph - N/A   Overcast
1:55 AM 48.2 °F - 44.6 °F 87% 29.78 in 10.0 mi North 4.6 mph - N/A   Overcast
2:15 AM 48.2 °F - 44.6 °F 87% 29.76 in 10.0 mi North 5.8 mph - N/A   Overcast
2:34 AM 48.2 °F - 44.6 °F 87% 29.77 in 10.0 mi North 5.8 mph - N/A   Overcast
2:55 AM 48.2 °F - 44.6 °F 87% 29.77 in 10.0 mi North 4.6 mph - N/A   Overcast
3:34 AM 46.4 °F 44.3 °F 44.6 °F 93% 29.77 in 10.0 mi North 4.6 mph - N/A Rain Light Rain
3:55 AM 46.4 °F 43.5 °F 44.6 °F 93% 29.77 in 10.0 mi North 5.8 mph - N/A   Overcast
4:14 AM 46.4 °F 45.2 °F 44.6 °F 93% 29.77 in 10.0 mi North 3.5 mph - N/A   Overcast
4:35 AM 46.4 °F 44.3 °F 44.6 °F 93% 29.76 in 10.0 mi NNE 4.6 mph - N/A   Overcast
4:55 AM 46.4 °F - 44.6 °F 93% 29.77 in 10.0 mi Calm Calm - N/A   Overcast
5:14 AM 46.4 °F - 44.6 °F 93% 29.76 in 10.0 mi Calm Calm - N/A   Overcast
5:35 AM 46.4 °F - 44.6 °F 93% 29.77 in 10.0 mi Calm Calm - N/A   Overcast
5:55 AM 46.4 °F - 44.6 °F 93% 29.77 in 10.0 mi Calm Calm - N/A   Overcast
6:14 AM 46.4 °F - 44.6 °F 93% 29.77 in 10.0 mi Calm Calm - N/A   Overcast
6:35 AM 46.4 °F 42.9 °F 44.6 °F 93% 29.75 in 10.0 mi North 6.9 mph - N/A   Overcast
6:54 AM 46.4 °F 43.5 °F 44.6 °F 93% 29.75 in 10.0 mi North 5.8 mph - N/A   Overcast
7:15 AM 46.4 °F 43.5 °F 44.6 °F 93% 29.74 in 10.0 mi North 5.8 mph - N/A   Overcast
7:35 AM 46.4 °F 42.9 °F 44.6 °F 93% 29.74 in 10.0 mi North 6.9 mph - N/A   Overcast
7:54 AM 46.4 °F 42.9 °F 44.6 °F 93% 29.74 in 10.0 mi North 6.9 mph - N/A   Overcast
8:15 AM 46.4 °F 42.9 °F 44.6 °F 93% 29.73 in 10.0 mi NNE 6.9 mph - N/A   Overcast
8:35 AM 46.4 °F 43.5 °F 42.8 °F 87% 29.73 in 10.0 mi NNE 5.8 mph - N/A   Overcast
8:54 AM 46.4 °F 42.9 °F 42.8 °F 87% 29.73 in 10.0 mi NNE 6.9 mph - N/A   Overcast
9:15 AM 46.4 °F 43.5 °F 42.8 °F 87% 29.71 in 10.0 mi North 5.8 mph - N/A   Drizzle
9:34 AM 46.4 °F 42.4 °F 42.8 °F 87% 29.70 in 10.0 mi NNE 8.1 mph - N/A   Light Drizzle
9:55 AM 46.4 °F 42.4 °F 44.6 °F 93% 29.68 in 10.0 mi NNE 8.1 mph - N/A   Overcast
10:14 AM 46.4 °F 42.4 °F 44.6 °F 93% 29.67 in 10.0 mi NNE 8.1 mph - N/A   Overcast
10:35 AM 46.4 °F 41.9 °F 44.6 °F 93% 29.65 in 7.0 mi NNE 9.2 mph - N/A Rain Light Rain
10:55 AM 46.4 °F 42.9 °F 44.6 °F 93% 29.65 in 7.0 mi NNE 6.9 mph - N/A   Drizzle
11:14 AM 46.4 °F 42.4 °F 44.6 °F 93% 29.64 in 10.0 mi NNE 8.1 mph - N/A   Drizzle
11:35 AM 46.4 °F 42.9 °F 44.6 °F 93% 29.64 in 7.0 mi North 6.9 mph - N/A Rain Rain
11:55 AM 46.4 °F 42.4 °F 44.6 °F 93% 29.63 in 4.0 mi North 8.1 mph - N/A Rain Heavy Rain
12:14 PM 46.4 °F 42.4 °F 44.6 °F 93% 29.62 in 1.0 mi North 8.1 mph - N/A Rain Heavy Rain
12:35 PM 48.2 °F - 44.6 °F 87% 29.60 in 1.2 mi North 11.5 mph 16.1 mph N/A Rain Heavy Rain
12:54 PM 48.2 °F - 44.6 °F 87% 29.58 in 3.0 mi North 12.7 mph - N/A Rain Heavy Rain
1:15 PM 48.2 °F - 46.4 °F 93% 29.57 in 3.0 mi North 12.7 mph 19.6 mph N/A Rain Rain
1:35 PM 48.2 °F - 46.4 °F 93% 29.56 in 4.0 mi NNE 13.8 mph 18.4 mph N/A Rain Rain
1:54 PM 48.2 °F - 46.4 °F 93% 29.54 in 2.0 mi North 11.5 mph - N/A   Overcast
2:15 PM 48.2 °F - 46.4 °F 93% 29.52 in 4.0 mi North 13.8 mph 20.7 mph N/A Rain Rain
2:35 PM 48.2 °F - 46.4 °F 93% 29.51 in 7.0 mi NNE 11.5 mph 19.6 mph N/A Rain Rain
2:54 PM 48.2 °F - 46.4 °F 93% 29.49 in 3.0 mi NNE 16.1 mph 27.6 mph N/A Rain Heavy Rain
3:15 PM 48.2 °F - 46.4 °F 93% 29.48 in 10.0 mi NNE 18.4 mph 23.0 mph N/A Rain Light Rain
3:34 PM 48.2 °F - 46.4 °F 93% 29.47 in 10.0 mi North 15.0 mph 21.9 mph N/A Rain Light Rain
3:55 PM 48.2 °F - 46.4 °F 93% 29.47 in 7.0 mi North 11.5 mph 23.0 mph N/A Rain Light Rain
4:15 PM 48.2 °F - 46.4 °F 93% 29.47 in 10.0 mi NNE 10.4 mph 17.3 mph N/A Rain Rain
4:34 PM 48.2 °F - 44.6 °F 87% 29.46 in 5.0 mi North 15.0 mph 19.6 mph N/A Rain Rain
4:55 PM 48.2 °F - 44.6 °F 87% 29.44 in 7.0 mi North 15.0 mph 23.0 mph N/A Rain Rain
5:15 PM 48.2 °F - 44.6 °F 87% 29.44 in 5.0 mi North 15.0 mph 26.5 mph N/A Rain Rain
5:34 PM 46.4 °F 41.1 °F 44.6 °F 93% 29.44 in 10.0 mi North 11.5 mph 23.0 mph N/A Rain Light Rain
5:55 PM 46.4 °F 40.4 °F 44.6 °F 93% 29.43 in 10.0 mi North 13.8 mph 25.3 mph N/A Rain Light Rain
6:14 PM 46.4 °F 39.2 °F 44.6 °F 93% 29.43 in 7.0 mi North 18.4 mph 25.3 mph N/A Rain Light Rain
6:35 PM 46.4 °F 39.2 °F 44.6 °F 93% 29.42 in 4.0 mi North 18.4 mph 26.5 mph N/A Rain Rain
6:55 PM 46.4 °F 40.1 °F 44.6 °F 93% 29.43 in 4.0 mi North 15.0 mph 26.5 mph N/A Rain Light Rain
7:14 PM 46.4 °F 39.2 °F 44.6 °F 93% 29.43 in 10.0 mi North 18.4 mph 25.3 mph N/A Rain Light Rain
7:35 PM 46.4 °F 39.5 °F 44.6 °F 93% 29.44 in 7.0 mi North 17.3 mph 23.0 mph N/A Rain Light Rain
7:55 PM 46.4 °F 40.4 °F 42.8 °F 87% 29.46 in 7.0 mi North 13.8 mph 21.9 mph N/A Rain Light Rain
8:14 PM 44.6 °F 37.2 °F 42.8 °F 93% 29.47 in 4.0 mi North 17.3 mph 25.3 mph N/A   Overcast
8:35 PM 44.6 °F 37.2 °F 42.8 °F 93% 29.48 in 5.0 mi NNW 17.3 mph 21.9 mph N/A Rain Rain
8:54 PM 44.6 °F 37.4 °F 42.8 °F 93% 29.48 in 3.0 mi North 16.1 mph 26.5 mph N/A   Overcast
9:15 PM 44.6 °F 38.1 °F 42.8 °F 93% 29.48 in 5.0 mi NNW 13.8 mph 24.2 mph N/A   Overcast
9:35 PM 44.6 °F 36.9 °F 42.8 °F 93% 29.48 in 7.0 mi NNW 18.4 mph 28.8 mph N/A   Overcast
9:54 PM 44.6 °F 36.6 °F 41.0 °F 87% 29.48 in 7.0 mi NNW 19.6 mph 29.9 mph N/A   Overcast
10:15 PM 44.6 °F 37.4 °F 41.0 °F 87% 29.48 in 5.0 mi NNW 16.1 mph 24.2 mph N/A   Overcast
10:35 PM 44.6 °F 37.2 °F 41.0 °F 87% 29.49 in 7.0 mi NNW 17.3 mph 31.1 mph N/A Rain Light Rain
10:54 PM 44.6 °F 36.6 °F 41.0 °F 87% 29.49 in 10.0 mi NNW 19.6 mph 27.6 mph N/A Rain Light Rain
11:15 PM 44.6 °F 37.4 °F 41.0 °F 87% 29.50 in 10.0 mi NW 16.1 mph 24.2 mph N/A Rain Light Rain
11:34 PM 44.6 °F 36.1 °F 41.0 °F 87% 29.50 in 10.0 mi NNW 21.9 mph 28.8 mph N/A Rain Rain
11:55 PM 42.8 °F 35.1 °F 39.2 °F 87% 29.51 in 10.0 mi NNW 16.1 mph 24.2 mph N/A Rain Light Rain